Location: Brede
(50.9167°N, 0.6000°E)
Time: 11:28:10
(UTC+00:00)

ISS - Pass Details

Date: 04 November 2020
Orbit: 418 x 420 km, 51.6° (Epoch: 04 December)

Event Time Altitude Azimuth Distance (km) Brightness Sun altitude
Exits shadow 04:55:19 75° 291° (WNW) 441 -3.9 -19.2°
Maximum altitude 04:55:34 87° 6° (N) 427 -3.9 -19.1°
Drops below altitude 10° 04:58:58 10° 100° (E) 1,506 0.3 -18.6°
Sets 05:01:06 0° 101° (E) 2,386 1.7 -18.3°
